{"data":{"norad_id":65535,"intl_designator":"2025-200R","name":"STARLINK-35133","alt_names":[],"object_type":"PAYLOAD","status":"ACTIVE","operator":null,"country":"US","launch_date":"2025-09-06","launch_site_code":"AFWTR","launch_vehicle":null,"mission":null,"orbit_class":"UNKNOWN","rcs_meters":null,"size_class":null,"mass_kg":null,"dimensions":null,"purposes":["comms"],"wikipedia_slug":null,"has_3d_model":false,"image_url":null,"decayed_at":null,"tle_current":{"epoch":"2026-09-19T10:48:29.721600Z","epoch_age_seconds":202695,"freshness":"STALE","line1":"1 65535U 25200R   26262.45034400  .00014951  00000+0  46450-3 0  9992","line2":"2 65535  97.2842 328.9018 0001049 100.4485 259.6877 15.33446240 58486","mean_motion":15.3344624,"eccentricity":0.0001049,"inclination_deg":97.2842,"raan_deg":328.9018,"arg_perigee_deg":100.4485,"mean_anomaly_deg":259.6877,"bstar":0.0004645,"rev_number":5848,"period_min":93.906128720887,"perigee_km":464.82158344974,"apogee_km":466.25738677632,"semimajor_km":6843.676485113,"source":"CELESTRAK","updated_at":"2026-09-21T09:00:35.650851Z"}}}